This demonstration page uses our WeatherBlox Daily Observations layout. Learn more.

39.29038, -76.61219

Hourly Observations for April 15, 2019

Temp ( °F °C ) Dew Point ( °F °C ) Humidity (%) Winds ( mph kmh ) Pressure ( in mb ) Visibility ( mi km ) Precip ( " mm )
12:54 am 00:54 undefined 68 20 62 16.7 81 81 undefined N/A 29.43 997 N/A 0 0
1:54 am 01:54 undefined 69 20.6 64 17.8 84 84 undefined N/A 29.38 995 N/A 0.29 7.366
2:54 am 02:54 undefined 64 17.8 61 16.1 90 90 undefined N/A 29.41 996 N/A 0.28 7.112
3:54 am 03:54 undefined 63 17.2 57 13.9 81 81 undefined N/A 29.39 995 N/A 0.04 1.016
4:54 am 04:54 undefined 62 16.7 58 14.4 86 86 undefined N/A 29.42 996 N/A 0 0
5:54 am 05:54 undefined 61 16.1 58 14.4 90 90 undefined N/A 29.4 996 N/A 0 0
6:54 am 06:54 undefined 61 16.1 57 13.9 87 87 undefined N/A 29.42 996 N/A 0 0
7:54 am 07:54 undefined 62 16.7 56 13.3 80 80 undefined N/A 29.45 997 N/A 0 0
8:54 am 08:54 undefined 59 15 39 3.9 48 48 undefined N/A 29.45 997 N/A 0 0
9:54 am 09:54 undefined 57 13.9 38 3.3 49 49 undefined N/A 29.53 1000 N/A 0 0
10:54 am 10:54 undefined 57 13.9 33 0.6 41 41 undefined N/A 29.58 1002 N/A 0 0
11:54 am 11:54 undefined 56 13.3 33 0.6 42 42 undefined N/A 29.61 1003 N/A 0 0
12:54 pm 12:54 undefined 55 12.8 29 -1.7 37 37 undefined N/A 29.66 1004 N/A 0 0
1:54 pm 13:54 undefined 54 12.2 29 -1.7 38 38 undefined N/A 29.69 1006 N/A 0 0
2:54 pm 14:54 undefined 53 11.7 29 -1.7 40 40 undefined N/A 29.73 1007 N/A 0 0
3:54 pm 15:54 undefined 53 11.7 29 -1.7 40 40 undefined N/A 29.74 1007 N/A 0 0
4:54 pm 16:54 undefined 54 12.2 29 -1.7 38 38 undefined N/A 29.78 1009 N/A 0 0
5:54 pm 17:54 undefined 53 11.7 30 -1.1 41 41 undefined N/A 29.8 1009 N/A 0 0
6:54 pm 18:54 undefined 53 11.7 29 -1.7 40 40 undefined N/A 29.84 1011 N/A 0 0
7:54 pm 19:54 undefined 51 10.6 31 -0.6 46 46 undefined N/A 29.88 1012 N/A 0 0
8:54 pm 20:54 undefined 50 10 28 -2.2 43 43 undefined N/A 29.93 1014 N/A 0 0
9:54 pm 21:54 undefined 49 9.4 28 -2.2 44 44 undefined N/A 29.97 1015 N/A 0 0
10:54 pm 22:54 undefined 48 8.9 28 -2.2 46 46 undefined N/A 30 1016 N/A 0 0
11:54 pm 23:54 undefined 48 8.9 28 -2.2 46 46 undefined N/A 30.01 1016 N/A 0 0

Powered by AerisWeather